Weather History for KSMQ - October, 2014

Change the Weather History Date:

Saturday, October 11, 2014

  Actual Average Record
Temperature  
Mean Temperature 48 °F -  
Max Temperature 55 °F 63 °F 87 °F (1949)
Min Temperature 42 °F 41 °F 27 °F (1956)
Degree Days  
Heating Degree Days 16    
Moisture  
Dew Point 46 °F    
Average Humidity 89    
Maximum Humidity 100    
Minimum Humidity 74    
Precipitation  
Precipitation 0.27 in - - ()
Sea Level Pressure  
Sea Level Pressure 30.09 in    
Wind  
Wind Speed 2 mph (North)    
Max Wind Speed 7 mph    
Max Gust Speed -    
Visibility 5 miles    
Events Fog , Rain    
Averages and records for this station are not official NWS values.
T = Trace of Precipitation, MM = Missing Value Source: NWS Daily Summary

Daily Weather History Graph

Daily Weather History Graph

Search for Another Location

Airport or City:

Trip Planner

Search our weather history database for the weather conditions in past years. The results will help you decide how hot, cold, wet, or windy it might be!

Date:

Astronomy

Oct. 11, 2014 Rise Set
Actual Time 7:05 AM EDT 6:24 PM EDT
Civil Twilight 6:38 AM EDT 6:52 PM EDT
Nautical Twilight 6:06 AM EDT 7:23 PM EDT
Astronomical Twilight 5:34 AM EDT 7:55 PM EDT
Moon 8:49 PM EDT (10/11) 10:27 AM EDT (10/11)
Length of Visible Light 12h 14m
Length of Day
11h 19m
Waning Gibbous, 87% of the Moon is Illuminated
Oct 11
Waning Gibbous
Oct 15
Last Quarter
Oct 23
New
Oct 30
First Quarter
Nov 6
Full

Hourly Weather History & Observations

Time (EDT) Temp. Windchill Dew Point Humidity Pressure Visibility Wind Dir Wind Speed Gust Speed Precip Events Conditions
12:53 AM 55.0 °F - 48.9 °F 80% 30.07 in 10.0 mi Calm Calm - N/A   Overcast
1:53 AM 53.1 °F - 50.0 °F 89% 30.06 in 10.0 mi Calm Calm - 0.00 in Rain Light Rain
2:53 AM 53.1 °F - 50.0 °F 89% 30.04 in 10.0 mi North 4.6 mph - 0.00 in Rain Light Rain
3:53 AM 53.1 °F - 48.9 °F 86% 30.04 in 7.0 mi North 3.5 mph - 0.02 in Rain Light Rain
4:53 AM 51.8 °F - 48.2 °F 88% 30.04 in 5.0 mi Calm Calm - N/A Rain Light Rain
5:20 AM 52.0 °F - 48.9 °F 89% 30.05 in 8.0 mi NNW 3.5 mph - 0.00 in Rain Light Rain
5:53 AM 51.8 °F - 48.2 °F 88% 30.05 in 5.0 mi Calm Calm - N/A Rain Light Rain
6:00 AM 52.0 °F - 48.9 °F 89% 30.04 in 5.0 mi NNE 3.5 mph - 0.00 in Rain Light Rain
6:53 AM 52.0 °F - 48.9 °F 89% 30.03 in 6.0 mi Calm Calm - 0.03 in Rain Light Rain
7:36 AM 51.1 °F - 48.9 °F 92% 30.04 in 2.0 mi NE 4.6 mph - 0.05 in Rain Rain
7:53 AM 51.1 °F - 48.9 °F 92% 30.06 in 3.0 mi North 4.6 mph - 0.06 in Rain Light Rain
8:53 AM 51.1 °F - 48.9 °F 92% 30.05 in 4.0 mi North 5.8 mph - 0.04 in Rain Light Rain
9:20 AM 51.1 °F - 48.0 °F 89% 30.05 in 4.0 mi North 4.6 mph - 0.02 in Rain Light Rain
9:43 AM 51.1 °F - 48.0 °F 89% 30.04 in 2.5 mi North 4.6 mph - 0.06 in Rain Rain
9:53 AM 51.1 °F - 48.9 °F 92% 30.05 in 3.0 mi North - - 0.07 in Rain Rain
10:53 AM 52.0 °F - 48.0 °F 86% 30.03 in 7.0 mi Variable 4.6 mph - 0.05 in Rain Light Rain
11:50 AM 53.6 °F - 48.2 °F 82% 30.07 in 10.0 mi North 4.6 mph - 0.00 in Rain Light Rain
11:53 AM 53.1 °F - 48.9 °F 86% 30.07 in 9.0 mi North 4.6 mph - 0.00 in   Overcast
12:53 PM 53.1 °F - 48.0 °F 83% 30.07 in 10.0 mi North 6.9 mph - N/A   Overcast
1:53 PM 54.0 °F - 48.0 °F 80% 30.06 in 10.0 mi North 3.5 mph - N/A   Overcast
2:12 PM 54.0 °F - 48.9 °F 83% 30.06 in 10.0 mi North 3.5 mph - N/A   Overcast
2:53 PM 55.0 °F - 48.9 °F 80% 30.05 in 10.0 mi North 5.8 mph - N/A   Overcast
3:53 PM 55.0 °F - 46.9 °F 74% 30.07 in 10.0 mi NNE 6.9 mph - N/A   Overcast
4:53 PM 55.4 °F - 48.2 °F 77% 30.08 in 10.0 mi North - - N/A   Overcast
5:53 PM 55.0 °F - 48.0 °F 77% 30.09 in 10.0 mi NNW 3.5 mph - N/A   Overcast
6:53 PM 50.0 °F - 46.9 °F 89% 30.11 in 10.0 mi Calm Calm - N/A   Partly Cloudy
7:24 PM 48.0 °F - 46.0 °F 93% 30.11 in 1.5 mi Calm Calm - N/A   Partly Cloudy
7:35 PM 48.0 °F - 46.0 °F 93% 30.11 in 3.0 mi Calm Calm - N/A   Partly Cloudy
7:39 PM 48.0 °F - 46.0 °F 93% 30.11 in 1.8 mi Calm Calm - N/A   Scattered Clouds
7:42 PM 48.0 °F - 46.0 °F 93% 30.11 in 0.8 mi Calm Calm - N/A   Mist
7:53 PM 46.9 °F - 45.0 °F 93% 30.12 in 0.5 mi Calm Calm - N/A Fog Fog
8:24 PM 46.0 °F 44.8 °F 44.1 °F 93% 30.12 in 0.2 mi NW 3.5 mph - N/A Fog Fog
8:33 PM 46.0 °F - 44.1 °F 93% 30.12 in 0.5 mi Calm Calm - N/A Fog Fog
8:49 PM 44.6 °F - 44.6 °F 100% 30.13 in 1.0 mi Calm Calm - N/A   Mist
8:53 PM 45.0 °F 43.5 °F 43.0 °F 93% 30.13 in 1.0 mi NNW 3.5 mph - N/A   Mist
9:15 PM 45.0 °F - 43.0 °F 93% 30.13 in 0.5 mi Calm Calm - N/A Fog Fog
9:44 PM 44.1 °F - 42.1 °F 93% 30.15 in 0.2 mi Calm Calm - N/A Fog Fog
9:51 PM 44.6 °F - 42.8 °F 93% 30.15 in 0.5 mi Calm Calm - N/A Fog Fog
9:53 PM 43.0 °F 41.3 °F 42.1 °F 97% 30.15 in 0.5 mi NW 3.5 mph - N/A Fog Fog
10:18 PM 43.0 °F - 42.1 °F 97% 30.15 in 2.0 mi Calm Calm - N/A   Mostly Cloudy
10:26 PM 44.1 °F - 42.1 °F 93% 30.15 in 4.0 mi Calm Calm - N/A   Scattered Clouds
10:33 PM 43.0 °F - 41.0 °F 93% 30.15 in 1.8 mi Calm Calm - N/A   Partly Cloudy
10:37 PM 43.0 °F 41.3 °F 41.0 °F 93% 30.16 in 0.8 mi NW 3.5 mph - N/A   Mist
10:53 PM 42.1 °F 40.2 °F 41.0 °F 96% 30.17 in 0.5 mi NW 3.5 mph - N/A Fog Fog
11:03 PM 43.0 °F - 41.0 °F 93% 30.16 in 2.0 mi Calm Calm - N/A   Mostly Cloudy
11:06 PM 43.0 °F - 41.0 °F 93% 30.16 in 3.0 mi Calm Calm - N/A   Scattered Clouds
11:53 PM 43.0 °F - 41.0 °F 93% 30.18 in 1.8 mi Calm Calm - N/A   Partly Cloudy